Regional Weather Roundup
Issued by NWS

Home | Current Version | Previous Version | Graphics & Text | Print | Product List | Glossary On
Versions: 1 2 3 4 5 6 7 8 9 10 11 12 13 14 15 16 17 18 19 20 21 22 23 24 25 26 27 28 29 30 31 32 33 34 35 36 37 38 39 40 41 42 43 44 45 46 47 48 49 50
000
ASUS43 KLOT 191804
RWRIL

ILLINOIS REGIONAL WEATHER ROUNDUP
NATIONAL WEATHER SERVICE CHICAGO/ROMEOVILLE IL
100 PM CDT THU OCT 19 2017

NOTE: "FAIR" INDICATES FEW OR NO CLOUDS BELOW 12,000 FEET WITH NO
SIGNIFICANT WEATHER AND/OR OBSTRUCTIONS TO VISIBILITY.

* THESE STATIONS ARE NOT UNDER NWS QUALITY CONTROL. THEY ALSO MAY NOT
  REPORT WEATHER SUCH AS PRECIPITATION OR FOG.

ILZ001-002-007-009-015-016-024-191900-
NORTHWEST ILLINOIS

CITY           SKY/WX    TMP DP  RH WIND       PRES   REMARKS
MOLINE         FAIR      71  37  28 E9        30.16F
6HR MIN TEMP:  44; 6HR MAX TEMP:  72;

STERLING*      FAIR      70  30  22 SE6         N/A
SAVANNA*       FAIR      70  28  20 CALM      30.16F
$$

ILZ003-004-008-010-011-017-018-191900-
NORTH CENTRAL ILLINOIS

CITY           SKY/WX    TMP DP  RH WIND       PRES   REMARKS
ROCKFORD       PTSUNNY   69  29  22 CALM      30.18F
6HR MIN TEMP:  43; 6HR MAX TEMP:  69;

FREEPORT*      FAIR      68  27  21 NE3       30.19F
ROCHELLE*      FAIR      68  30  24 E5        30.18F
DE KALB*       FAIR      68  28  22 E3        30.19F
PERU*          FAIR      68  30  24 SE6       30.18F
$$

ILZ005-006-012>014-019>023-191900-
NORTHEAST ILLINOIS

CITY           SKY/WX    TMP DP  RH WIND       PRES   REMARKS
CHICAGO-OHARE  PTSUNNY   69  25  19 NE6       30.18F
6HR MIN TEMP:  51; 6HR MAX TEMP:  69;

CHICAGO-MIDWAY FAIR      68  22  17 N3        30.18F
6HR MIN TEMP:  53; 6HR MAX TEMP:  69;

AURORA         FAIR      69  30  23 E6        30.19F
6HR MIN TEMP:  43; 6HR MAX TEMP:  69;

LANSING*       FAIR      66  33  29 N3        30.19F
JOLIET*        FAIR      69  31  24 E5        30.19F
WAUKEGAN       FAIR      64  27  24 CALM      30.18S
6HR MIN TEMP:  46; 6HR MAX TEMP:  65;

DUPAGE AIRPORT FAIR      67  25  20 CALM      30.18F
6HR MIN TEMP:  44; 6HR MAX TEMP:  67;

KANKAKEE*      FAIR      70  35  28 N3        30.19F
WHEELING       FAIR      68  25  19 CALM      30.19F
6HR MIN TEMP:  50; 6HR MAX TEMP:  68;

MORRIS*        FAIR      70  23  17 NE5       30.18F
NORTHERLY ISL    N/A     63  32  31 NE7         N/A
$$

LMZ740>746-191900-
SOUTHERN LAKE MICHIGAN

STATION/POSITION SKY/WX   TEMP    WIND        PRES    VSBY  WAVE
                          AIR SEA DIR/SP/G                  HT/PER
                          (F)     (DEG/KT/KT) (MB)    (MI)  (FT/S)
SOUTHERN BUOY              58 61  310/  8/  8 1022.6          2/ 5
WILMETTE HARBOR            59 58  330/  2/  2   N/A           1
HARRISON CRIB              60     360/  4/  4   N/A
BURNHAM HARBOR             63      40/  5/  7   N/A
CALUMET HARBOR             63      30/  5/  6 1021.8F
BURNS HARBOR               59     350/  3/  4 1023.0S
MICHIGAN CITY              63     330/  2/  2   N/A
MICHIGAN CITY 6N           60 58  340/  2/  4   N/A           2/ 3
ST. JOSEPH                 60 59  350/  6/  8 1022.6F         2/ 4
$$

ILZ025>027-034>036-040-047-049-050-058-095>099-191900-
WEST-CENTRAL ILLINOIS

CITY           SKY/WX    TMP DP  RH WIND       PRES   REMARKS
QUINCY         FAIR      72  51  47 VRB7      30.15F
GALESBURG*     FAIR      77  60  56 SE8       30.17F
MACOMB*        FAIR      73  50  45 S5        30.18F
JACKSONVILLE*  FAIR      73  52  48 S5        30.17F
PITTSFIELD*    FAIR      74  54  48 S5        30.17F
$$

ILZ028>032-037-038-041>044-048-051>054-059>061-191900-
CENTRAL ILLINOIS

CITY           SKY/WX    TMP DP  RH WIND       PRES   REMARKS
PONTIAC        FAIR      70  43  37 NE5       30.19F
BLOOMINGTON    FAIR      72  52  49 CALM      30.19F
DECATUR        FAIR      72  51  47 SW5       30.18F
PEORIA         FAIR      70  52  52 E3        30.18F
6HR MIN TEMP:  48; 6HR MAX TEMP:  70;

LACON*         FAIR      71  42  36 SE5       30.17F
LINCOLN*       FAIR      73  53  50 CALM      30.17F
SPRINGFIELD    FAIR      75  55  49 VRB5      30.17F
6HR MIN TEMP:  54; 6HR MAX TEMP:  75;

TAYLORVILLE    FAIR      74  51  44 SE5       30.18F
6HR MIN TEMP:  48; 6HR MAX TEMP:  74;

$$

ILZ033-039-045-046-055>057-062-063-191900-
EAST-CENTRAL ILLINOIS

CITY           SKY/WX    TMP DP  RH WIND       PRES   REMARKS
CHAMPAIGN      FAIR      74  50  42 SW5       30.18F
DANVILLE*      FAIR      70  51  49 W5        30.16F
RANTOUL*       FAIR      72  53  51 CALM      30.18F
MATTOON        FAIR      74  53  48 VRB3      30.18F
PARIS*         FAIR      74  52  46 SW3       30.19F
$$

ILZ079-100>102-191900-
SOUTHWEST ILLINOIS

CITY           SKY/WX    TMP DP  RH WIND       PRES   REMARKS
ALTON          SUNNY     73  52  46 CALM      30.19F
CAHOKIA*       FAIR      79  47  32 VRB6      30.18F
SPARTA*        FAIR      76  50  40 SW5       30.21F
$$

ILZ064>066-069>071-074>076-080>082-084>086-088>090-092>094-191900-
SOUTH-CENTRAL ILLINOIS

CITY           SKY/WX    TMP DP  RH WIND       PRES   REMARKS
CARBONDALE     FAIR      75  54  47 SW7       30.21F
6HR MIN TEMP:  50; 6HR MAX TEMP:  75;

EFFINGHAM*     FAIR      75  52  43 S5        30.21F
MARION         SUNNY     75  52  43 S9        30.23F
MT. VERNON     FAIR      76  53  44 SW6       30.21F
CENTRALIA*     FAIR      78  51  39 W5        30.20S
SALEM*         FAIR      77  47  34 CALM      30.20F
METROPOLIS*    FAIR      75  52  44 SW8       30.25F
$$

ILZ067-068-072-073-078-083-087-091-191900-
SOUTHEAST ILLINOIS

CITY           SKY/WX    TMP DP  RH WIND       PRES   REMARKS
LAWRENCEVILLE  FAIR      72  53  51 VRB3      30.21F
FLORA*         FAIR      75  52  43 W3        30.21F
FAIRFIELD*     FAIR      74  51  44 CALM      30.20F
HARRISBURG*    FAIR      75  54  48 SW9       30.23F
ROBINSON*      FAIR      72  51  48 SW6       30.21F
CARMI*         FAIR      75  52  44 S6        30.21F
$$

ABBREVIATIONS USED IN REMARKS
   TC - TEMPERATURE IN CELSIUS
  WCI - WIND CHILL INDEX
   HX - HEAT INDEX
  VSB - VISIBILITY
$$




USA.gov is the U.S. government's official web portal to all federal, state and local government web resources and services.